Regional Weather Roundup
Issued by NWS Goodland, KS

Home | Current Version | Previous Version | Text Only | Print | Product List | Glossary On
Versions: 1 2 3 4 5 6 7 8 9 10 11 12 13 14 15 16 17 18 19 20 21 22 23 24 25 26 27 28 29 30 31 32 33 34 35 36 37 38 39 40 41 42 43 44 45 46 47 48 49 50
000
ASUS43 KGLD 290108
RWRGLD

GOODLAND FORECAST AREA HOURLY WEATHER ROUNDUP
NATIONAL WEATHER SERVICE GOODLAND KS
700 PM MDT THU AUG 28 2014

...OFFICIAL OBSERVATIONS...

CITY           SKY/WX    TMP DP  RH WIND       PRES   REMARKS
GOODLAND KS    PTCLDY    72  59  63 N14       29.99R
HILL CITY KS   PTCLDY    80  65  59 S3        29.85F
IMPERIAL NEB   PTCLDY    69  56  62 NW14      29.95S
MCCOOK NEB     PTCLDY    72  63  73 W8        29.88R
AKRON CO       MOCLDY    62  54  74 NW9       30.07F
BURLINGTON CO  MOCLDY    70  55  59 NW20      30.03R
LIMON CO       MOCLDY    63  48  58 NW18      30.13F
$$

...UNOFFICIAL OBSERVATIONS...

CITY           SKY/WX    TMP DP  RH WIND       PRES   REMARKS
COLBY KS       CLOUDY    68  63  83 NW14      29.95R
GOVE KS          N/A     79  32  18 CALM        N/A
NORTON KS      PTCLDY    75  61  60 S5        29.85S
SHARON SPRINGS   N/A     59  55  88 SW10G22     N/A
WAKEENEY KS      N/A     79  57  47 MISG        N/A
KIT CARSON CO    N/A     70  53  53 N7G15       N/A
YUMA CO          N/A     65  56  71 NW9G16      N/A
$$


USA.gov is the U.S. government's official web portal to all federal, state and local government web resources and services.